Weather History for Rockford, IL

Change the Weather History Date:

Tuesday, November 13, 2012

  Actual Average Record
Temperature  
Mean Temperature 31 °F 40 °F  
Max Temperature 41 °F 49 °F 73 °F (1989)
Min Temperature 20 °F 32 °F 3 °F (1986)
Degree Days  
Heating Degree Days 34 25  
Month to date heating degree days 316 283  
Since 1 July heating degree days 909 836  
Cooling Degree Days 0 0  
Month to date cooling degree days 0 0  
Year to date cooling degree days 1227 820  
Moisture  
Dew Point 20 °F    
Average Humidity 64    
Maximum Humidity 84    
Minimum Humidity 44    
Precipitation  
Precipitation 0.00 in 0.09 in 1.87 in (1951)
Month to date precipitation 0.60 1.14  
Year to date precipitation 20.86 32.82  
Snow  
Snow 0.00 in 0.10 in 1.50 in (1972)
Month to date snowfall T 0.2  
Since 1 July snowfall T 0.3  
Since 1 September snowfall T 0.3  
Snow Depth 0.00 in    
Sea Level Pressure  
Sea Level Pressure 30.49 in    
Wind  
Wind Speed 4 mph (SW)    
Max Wind Speed 9 mph    
Max Gust Speed 14 mph    
Visibility 10 miles    
Events      
T = Trace of Precipitation, MM = Missing Value Source: NWS Daily Summary

Daily Weather History Graph

Daily Weather History Graph

Search for Another Location

Airport:

Trip Planner

Search our weather history database for the weather conditions in past years. The results will help you decide how hot, cold, wet, or windy it might be!

Date:

Astronomy

Nov. 13, 2012 Rise Set
Actual Time 6:44 AM CST 4:36 PM CST
Civil Twilight 6:14 AM CST 5:06 PM CST
Nautical Twilight 5:41 AM CST 5:39 PM CST
Astronomical Twilight 5:08 AM CST 6:12 PM CST
Moon 6:23 AM CST (11/13) 4:28 PM CST (11/13)
Length of Visible Light 10h 51m
Length of Day
9h 51m
Waning Crescent, 0% of the Moon is Illuminated
Nov 13
Waning Crescent
Nov 13
New
Nov 20
First Quarter
Nov 28
Full
Dec 6
Last Quarter

Hourly Weather History & Observations

Time (CST) Temp. Windchill Dew Point Humidity Pressure Visibility Wind Dir Wind Speed Gust Speed Precip Events Conditions
12:54 AM 24.1 °F 17.0 °F 17.1 °F 75% 30.40 in 10.0 mi West 5.8 mph - N/A   Clear
1:54 AM 24.1 °F 17.0 °F 17.1 °F 75% 30.40 in 10.0 mi West 5.8 mph - N/A   Clear
2:54 AM 23.0 °F 15.8 °F 17.1 °F 78% 30.42 in 10.0 mi West 5.8 mph - N/A   Clear
3:54 AM 23.0 °F 18.4 °F 17.1 °F 78% 30.43 in 10.0 mi WSW 3.5 mph - N/A   Clear
4:54 AM 21.9 °F 17.2 °F 16.0 °F 78% 30.46 in 10.0 mi West 3.5 mph - N/A   Clear
5:54 AM 23.0 °F - 16.0 °F 74% 30.48 in 10.0 mi Calm Calm - N/A   Clear
6:54 AM 21.9 °F - 17.1 °F 82% 30.49 in 10.0 mi Calm Calm - N/A   Clear
7:54 AM 26.1 °F 20.5 °F 19.9 °F 78% 30.52 in 10.0 mi West 4.6 mph - N/A   Clear
8:54 AM 28.9 °F 21.9 °F 19.9 °F 69% 30.52 in 10.0 mi West 6.9 mph - N/A   Clear
9:54 AM 33.1 °F 26.9 °F 19.9 °F 59% 30.54 in 10.0 mi WSW 6.9 mph - N/A   Clear
10:54 AM 35.1 °F 29.3 °F 19.9 °F 54% 30.53 in 10.0 mi WNW 6.9 mph - N/A   Clear
11:54 AM 37.0 °F - 19.9 °F 50% 30.49 in 10.0 mi Calm Calm - N/A   Clear
12:54 PM 39.0 °F 35.7 °F 21.0 °F 49% 30.48 in 10.0 mi Variable 4.6 mph - N/A   Clear
1:54 PM 39.0 °F 34.0 °F 19.9 °F 46% 30.48 in 10.0 mi WSW 6.9 mph - N/A   Clear
2:54 PM 39.9 °F 37.8 °F 21.0 °F 47% 30.47 in 10.0 mi SSW 3.5 mph - N/A   Clear
3:54 PM 39.0 °F 35.7 °F 21.0 °F 49% 30.49 in 10.0 mi WSW 4.6 mph - N/A   Partly Cloudy
4:54 PM 36.0 °F - 21.9 °F 57% 30.49 in 10.0 mi Calm Calm - N/A   Partly Cloudy
5:54 PM 32.0 °F 28.7 °F 21.9 °F 66% 30.50 in 10.0 mi SSE 3.5 mph - N/A   Partly Cloudy
6:54 PM 30.0 °F 25.2 °F 21.9 °F 72% 30.49 in 10.0 mi SE 4.6 mph - N/A   Partly Cloudy
7:54 PM 30.0 °F 25.2 °F 23.0 °F 75% 30.50 in 10.0 mi SE 4.6 mph - N/A   Mostly Cloudy
8:54 PM 28.9 °F 23.9 °F 21.9 °F 75% 30.50 in 10.0 mi SE 4.6 mph - N/A   Scattered Clouds
9:54 PM 30.0 °F 25.2 °F 23.0 °F 75% 30.50 in 10.0 mi SSE 4.6 mph - N/A   Partly Cloudy
10:54 PM 28.9 °F 23.9 °F 21.9 °F 75% 30.51 in 10.0 mi South 4.6 mph - N/A   Partly Cloudy
11:54 PM 28.0 °F 24.2 °F 23.0 °F 81% 30.52 in 10.0 mi South 3.5 mph - N/A   Partly Cloudy